Location: Moscow
(55.7500°N, 37.5830°E)
Time: 20:52:24
(UTC+03:00)

Vanguard 2 Rocket - Visible Passes

Search period start: 30 November 2021 00:00
Search period end: 10 December 2021 00:00
Orbit: 555 x 3324 km, 32.9° (Epoch: 30 November)

Date Brightness Start Highest point End Pass type
(mag) Time Alt. Az. Time Alt. Az. Time Alt. Az.
30 Nov 9.6 20:24:10 10° SSW 20:27:40 18° S 20:27:40 18° S visible
01 Dec 9.6 19:26:31 10° S 19:31:06 15° SSE 19:31:09 15° SSE visible
01 Dec 9.9 21:35:51 10° SW 21:36:55 13° SW 21:36:55 13° SW visible
02 Dec 9.6 20:37:17 10° SSW 20:40:24 17° S 20:40:24 17° S visible
03 Dec 9.5 19:39:16 10° SSW 19:43:53 16° SSE 19:43:53 16° SSE visible
03 Dec 10.0 21:49:32 10° SW 21:49:39 10° SW 21:49:39 10° SW visible
04 Dec 9.5 18:42:29 10° S 18:44:37 11° SSE 18:47:00 10° SE visible
04 Dec 9.7 20:50:46 10° SW 20:53:09 15° SSW 20:53:09 15° SSW visible
05 Dec 9.5 19:52:30 10° SSW 19:56:39 15° S 19:56:39 15° S visible
06 Dec 9.5 18:55:05 10° S 18:57:29 12° SSE 19:00:11 10° SE visible
06 Dec 9.8 21:04:44 10° SW 21:05:58 12° SSW 21:05:58 12° SSW visible
07 Dec 9.5 20:06:15 10° SSW 20:09:31 14° S 20:09:31 14° S visible
08 Dec 9.5 19:08:38 10° S 19:10:28 11° SSE 19:12:32 10° SSE visible
09 Dec 9.7 20:21:11 10° SSW 20:22:30 11° S 20:22:30 11° S visible
